This demonstration page uses our WeatherBlox Daily Observations layout. Learn more.

40.92945, -100.16068

Hourly Observations for May 6, 2016

Temp ( °F °C ) Dew Point ( °F °C ) Humidity (%) Winds ( mph kmh ) Pressure ( in mb ) Visibility ( mi km ) Precip ( " mm )
12:15 am 00:15 Clear 61 16.2 47 8.3 60 60 S 13 20 29.97 1015 10 16.0934 N/A
12:35 am 00:35 Clear 61 16 47 8.1 60 60 S 13 20 29.97 1015 10 16.0934 N/A
12:55 am 00:55 Clear 60 15.8 46 7.8 59 59 S 12 19 30 1016 10 16.0934 N/A
1:15 am 01:15 Clear 60 15.8 46 7.6 58 58 S 12 19 30 1016 10 16.0934 N/A
1:35 am 01:35 Clear 61 16 45 7.2 56 56 S 14 22 30 1016 10 16.0934 N/A
1:55 am 01:55 Clear 61 16 45 7 55 55 S 15 24 30 1016 10 16.0934 N/A
2:15 am 02:15 Clear 60 15.7 45 7.1 57 57 S 13 20 30 1016 10 16.0934 N/A
2:35 am 02:35 Clear 59 15 45 7 59 59 S 13 20 30 1016 10 16.0934 N/A
2:55 am 02:55 Clear 59 15.2 44 6.8 57 57 S 14 22 29.97 1015 10 16.0934 N/A
3:15 am 03:15 Clear 59 15 44 6.5 57 57 S 14 22 29.97 1015 10 16.0934 N/A
3:35 am 03:35 Clear 59 15 44 6.6 57 57 S 13 20 29.97 1015 10 16.0934 N/A
3:55 am 03:55 Clear 58 14.5 44 6.7 60 60 S 14 22 29.97 1015 10 16.0934 N/A
4:15 am 04:15 Clear 57 13.8 44 6.9 63 63 S 12 19 29.97 1015 10 16.0934 N/A
4:35 am 04:35 Clear 56 13.5 45 7 65 65 S 13 20 29.97 1015 10 16.0934 N/A
4:55 am 04:55 Clear 55 12.9 45 7 68 68 S 9 15 30 1016 10 16.0934 N/A
5:15 am 05:15 Clear 53 11.6 45 7 74 74 S 8 13 30 1016 10 16.0934 N/A
5:35 am 05:35 Clear 52 11.2 45 7 76 76 S 9 15 30 1016 10 16.0934 N/A
5:55 am 05:55 Clear 50 10.1 44 6.7 80 80 S 6 9 30 1016 10 16.0934 N/A
6:15 am 06:15 Clear 49 9.2 43 6.3 82 82 S 5 7 30.03 1017 10 16.0934 N/A
6:35 am 06:35 Sunny 50 10.2 44 6.4 78 78 S 6 9 30 1016 10 16.0934 N/A
6:55 am 06:55 Sunny 55 12.6 44 6.8 68 68 S 6 9 30 1016 10 16.0934 N/A
7:15 am 07:15 Sunny 58 14.7 45 7 60 60 S 8 13 29.97 1015 10 16.0934 N/A
7:35 am 07:35 Sunny 62 16.9 44 6.9 52 52 S 8 13 29.94 1014 10 16.0934 N/A
7:55 am 07:55 Sunny 64 18 45 7.2 49 49 S 9 15 29.94 1014 10 16.0934 N/A
8:15 am 08:15 Sunny 64 18 46 7.7 51 51 SSW 10 17 29.94 1014 10 16.0934 N/A
8:35 am 08:35 Sunny 66 18.7 46 7.8 49 49 S 9 15 29.94 1014 10 16.0934 N/A
8:55 am 08:55 Sunny 65 18.5 47 8.1 51 51 SSW 13 20 29.94 1014 10 16.0934 N/A
9:15 am 09:15 Sunny 66 18.9 47 8.3 50 50 SSW 12 19 29.94 1014 10 16.0934 N/A
9:35 am 09:35 Sunny 69 20.4 47 8.4 46 46 SSW 13 20 29.91 1013 10 16.0934 N/A
9:55 am 09:55 Sunny 70 21.1 47 8.1 43 43 SSW 12 19 29.91 1013 10 16.0934 N/A
10:15 am 10:15 Sunny 71 21.8 49 9.2 45 45 S 15 24 29.91 1013 10 16.0934 N/A
10:35 am 10:35 Sunny 72 22.4 47 8.5 41 41 SSW 20 31 29.91 1013 10 16.0934 N/A
10:55 am 10:55 Sunny 70 21 51 10.7 52 52 S 16 26 29.91 1013 10 16.0934 N/A
11:15 am 11:15 Sunny 72 22 51 10.3 48 48 SSW 20 31 29.88 1012 10 16.0934 N/A
11:35 am 11:35 undefined N/A N/A N/A undefined N/A N/A N/A N/A
11:55 am 11:55 Sunny 75 24.1 52 11.1 44 44 SSW 16 26 29.85 1011 N/A N/A
12:15 pm 12:15 Sunny 77 25.1 54 12.1 44 44 S 18 30 29.85 1011 10 16.0934 N/A
12:35 pm 12:35 Sunny 78 25.6 52 10.9 40 40 S 20 31 29.85 1011 10 16.0934 0.04 1.016
12:55 pm 12:55 Sunny 78 25.3 50 10 38 38 S 17 28 29.83 1010 10 16.0934 0.04 1.016
1:15 pm 13:15 Sunny 79 25.9 52 11.1 40 40 S 16 26 29.83 1010 10 16.0934 N/A
1:35 pm 13:35 Sunny 79 26.2 51 10.5 37 37 S 17 28 29.83 1010 10 16.0934 N/A
1:55 pm 13:55 Sunny 78 25.8 50 10.1 37 37 S 20 31 29.83 1010 10 16.0934 N/A
2:15 pm 14:15 Sunny 78 25.6 51 10.5 39 39 S 16 26 29.83 1010 10 16.0934 N/A
2:35 pm 14:35 Sunny 79 26 52 11.2 40 40 S 15 24 29.83 1010 10 16.0934 N/A
2:55 pm 14:55 Sunny 78 25.4 51 10.8 40 40 S 17 28 29.8 1009 10 16.0934 N/A
3:15 pm 15:15 Sunny 76 24.7 52 11.2 43 43 S 16 26 29.8 1009 10 16.0934 N/A
3:35 pm 15:35 Sunny 78 25.5 53 11.4 41 41 S 16 26 29.8 1009 10 16.0934 N/A
3:55 pm 15:55 Sunny 79 26 53 11.5 40 40 S 15 24 29.77 1008 10 16.0934 N/A
4:15 pm 16:15 Sunny 79 26.1 53 11.7 41 41 S 17 28 29.77 1008 10 16.0934 N/A
4:35 pm 16:35 Sunny 81 27.1 55 12.6 41 41 SSE 16 26 29.74 1007 10 16.0934 N/A
4:55 pm 16:55 Sunny 81 27.1 53 11.9 39 39 S 13 20 29.74 1007 10 16.0934 N/A
5:15 pm 17:15 Sunny 81 27 53 11.4 38 38 S 12 19 29.71 1006 10 16.0934 N/A
5:35 pm 17:35 Sunny 81 27.4 53 11.5 37 37 S 14 22 29.71 1006 10 16.0934 N/A
5:55 pm 17:55 Sunny 81 27 53 11.8 39 39 S 15 24 29.71 1006 10 16.0934 N/A
6:15 pm 18:15 Sunny 81 27.1 52 11.1 37 37 S 15 24 29.71 1006 10 16.0934 N/A
6:35 pm 18:35 Sunny 81 27 50 10.2 35 35 S 14 22 29.71 1006 10 16.0934 N/A
6:55 pm 18:55 Sunny 78 25.7 53 11.7 42 42 SSE 9 15 29.71 1006 10 16.0934 N/A
7:15 pm 19:15 Sunny 78 25.5 52 11 40 40 SSE 8 13 29.71 1006 10 16.0934 N/A
7:35 pm 19:35 Sunny 76 24.2 53 11.4 45 45 SSE 9 15 29.71 1006 10 16.0934 N/A
7:55 pm 19:55 Sunny 74 23.5 51 10.6 44 44 SSE 9 15 29.71 1006 10 16.0934 N/A
8:15 pm 20:15 Sunny 74 23.1 51 10.5 45 45 SSE 12 19 29.71 1006 10 16.0934 N/A
8:35 pm 20:35 Sunny 74 23.4 50 10.2 43 43 SE 10 17 29.74 1007 10 16.0934 N/A
8:55 pm 20:55 Clear 74 23.2 50 9.8 43 43 SE 9 15 29.74 1007 10 16.0934 N/A
9:15 pm 21:15 Clear 72 22.4 50 10 45 45 SE 10 17 29.74 1007 10 16.0934 N/A
9:35 pm 21:35 Clear 70 21.1 50 10.2 50 50 SE 8 13 29.8 1009 10 16.0934 N/A
9:55 pm 21:55 Clear 68 19.9 51 10.5 55 55 SE 7 11 29.8 1009 10 16.0934 N/A
10:15 pm 22:15 Clear 67 19.5 50 10.2 55 55 SSE 8 13 29.8 1009 10 16.0934 N/A
10:35 pm 22:35 Clear 64 17.6 51 10.5 63 63 SSE 7 11 29.83 1010 10 16.0934 N/A
10:55 pm 22:55 Clear 62 16.5 51 10.6 68 68 SSE 8 13 29.83 1010 10 16.0934 N/A
11:15 pm 23:15 Clear 62 16.5 51 10.8 69 69 SSE 9 15 29.83 1010 10 16.0934 N/A
11:35 pm 23:35 Clear 62 16.5 52 11 70 70 SSE 8 13 29.83 1010 10 16.0934 N/A
11:55 pm 23:55 Clear 61 16.2 52 11 71 71 SSE 9 15 29.83 1010 10 16.0934 N/A

Powered by AerisWeather